Location: B?ogocice
(50.2413°N, 20.2361°E)
Time: 04:30:44
(UTC+00:00)

ALOS - Pass Details

Date: 22 September 2024
Orbit: 670 x 673 km, 98.0° (Epoch: 04 October)

Event Time Altitude Azimuth Distance (km) Brightness Sun altitude
Rises 02:02:47 0° 10° (N) 3,031 6.2 -22.6°
Reaches altitude 10° 02:05:04 10° 5° (N) 2,112 5.2 -22.3°
Maximum altitude 02:09:31 50° 290° (WNW) 853 2.4 -21.7°
Enters shadow 02:09:42 50° 282° (WNW) 856 2.4 -21.7°
